Location: ??
(31.9467°N, 34.8903°E)
Time: 17:51:23
(UTC+00:00)

Cosmos 2263 Rocket - Pass Details

Date: 29 October 2020
Orbit: 822 x 850 km, 71.0° (Epoch: 29 November)

Event Time Altitude Azimuth Distance (km) Brightness Sun altitude
Rises 17:00:18 0° 351° (N) 3,416 5.5 -27.5°
Reaches altitude 10° 17:03:04 10° 3° (N) 2,479 4.6 -28.1°
Enters shadow 17:03:30 12° 5° (N) 2,345 4.4 -28.2°
